Printer-friendly version

IAU Minor Planet Center

Minor Planet Center

MPEC 2005-M66 : 2005 MW9

The following Minor Planet Electronic Circular may be linked-to from your own Web pages, but must not otherwise be redistributed electronically.


Read MPEC 2005-M65 Read MPEC 2005-N01


M.P.E.C. 2005-M66                                Issued 2005 June 30, 15:08 UT

     The Minor Planet Electronic Circulars contain information on unusual
         minor planets and routine data on comets.  They are published
   on behalf of Commission 20 of the International Astronomical Union by the
          Minor Planet Center, Smithsonian Astrophysical Observatory,
                          Cambridge, MA 02138, U.S.A.

                  Supported in part by the Brinson Foundation
             Prepared using the Tamkin Foundation Computer Network

                              MPC@CFA.HARVARD.EDU
          URL http://cfa-www.harvard.edu/iau/mpc.html  ISSN 1523-6714

                                   2005 MW9

Observations:
     K05M09W* C2005 06 18.39481 22 40 19.95 -08 09 29.9          19.6 V EM066G96
     K05M09W  C2005 06 18.39853 22 40 18.66 -08 09 24.4          20.1 V EM066G96
     K05M09W  C2005 06 18.40223 22 40 17.36 -08 09 19.3          20.2 V EM066G96
     K05M09W  C2005 06 18.40594 22 40 16.03 -08 09 13.8          20.1 V EM066G96
     K05M09W  C2005 06 18.44776 22 40 01.30 -08 08 13.3          20.2 V EM066G96
     K05M09W  C2005 06 18.44817 22 40 01.12 -08 08 12.4          20.3 V EM066G96
     K05M09W  C2005 06 18.44859 22 40 01.02 -08 08 11.8          20.1 V EM066G96
     K05M09W 1C2005 06 18.51465 22 39 38.31 -08 06 32.3                 EM066F65
     K05M09W 1C2005 06 18.51553 22 39 38.04 -08 06 30.7                 EM066F65
     K05M09W 1C2005 06 18.51646 22 39 37.68 -08 06 29.2                 EM066F65
     K05M09W 1C2005 06 18.51819 22 39 37.09 -08 06 26.6                 EM066F65
     K05M09W 1C2005 06 18.51901 22 39 36.83 -08 06 26.0                 EM066F65
     K05M09W  C2005 06 19.36647 22 34 40.14 -07 45 45.1          20.4 R EM066854
     K05M09W  C2005 06 19.39049 22 34 31.62 -07 45 09.7          20.5 R EM066854
     K05M09W  C2005 06 19.61759 22 33 11.65 -07 39 19.2          19.9 R EM066474
     K05M09W  C2005 06 19.62139 22 33 10.30 -07 39 13.6          20.5 R EM066474
     K05M09W  C2005 06 19.62517 22 33 08.95 -07 39 08.7          19.7 R EM066474
     K05M09W  C2005 06 21.60144 22 21 27.66 -06 50 54.8          20.7 R EM066474
     K05M09W  C2005 06 21.60530 22 21 26.31 -06 50 48.6          20.6 R EM066474
     K05M09W  C2005 06 21.60916 22 21 24.82 -06 50 43.2          19.6 R EM066474
     K05M09W  C2005 06 21.61670 22 21 22.12 -06 50 31.7          20.1 R EM066474
     K05M09W  C2005 06 27.90619 21 43 34.84 -04 22 21.7          20.0 V EM066A50
     K05M09W  C2005 06 27.91233 21 43 32.40 -04 22 14.6          20.2 V EM066A50
     K05M09W  C2005 06 30.37831 21 28 50.27 -03 28 10.9          20.2 R EM066651
     K05M09W  C2005 06 30.37979 21 28 49.64 -03 28 09.5          20.2 R EM066651
     K05M09W 5C2005 06 30.45521 21 28 22.59 -03 26 33.7          20.5 R EM066673
     K05M09W 5C2005 06 30.45903 21 28 21.21 -03 26 28.9                 EM066673
     K05M09W 5C2005 06 30.46354 21 28 19.56 -03 26 22.9                 EM066673
     K05M09W 5C2005 06 30.47164 21 28 16.69 -03 26 13.0                 EM066673
     K05M09W 3C2005 06 30.47355 21 28 16.60 -03 26 07.2          20.3 R EM066F65
     K05M09W 3C2005 06 30.47461 21 28 16.25 -03 26 06.2          20.5 R EM066F65
     K05M09W 3C2005 06 30.47565 21 28 15.85 -03 26 04.7          20.3 R EM066F65
     K05M09W 3C2005 06 30.47654 21 28 15.51 -03 26 03.6          20.1 R EM066F65
     K05M09W 3C2005 06 30.47745 21 28 15.20 -03 26 02.3          20.2 R EM066F65
     K05M09W 1C2005 06 30.51146 21 28 02.96 -03 25 19.2                 EM066F65
     K05M09W 1C2005 06 30.51221 21 28 02.69 -03 25 18.7                 EM066F65
     K05M09W 1C2005 06 30.51296 21 28 02.40 -03 25 17.5                 EM066F65
     K05M09W 1C2005 06 30.51372 21 28 02.12 -03 25 16.5                 EM066F65
     K05M09W 3C2005 06 30.58003 21 27 38.28 -03 23 52.3          19.8 R EM066F65
     K05M09W 3C2005 06 30.58102 21 27 37.93 -03 23 51.3                 EM066F65
     K05M09W 3C2005 06 30.58200 21 27 37.56 -03 23 49.9                 EM066F65

Observer details:
474 Mount John Observatory, Lake Tekapo.  Observers A. C. Gilmore,
    P. M. Kilmartin.  1.0-m f/7.7 reflector + CCD.
651 Grasslands Observatory, Tucson.  Observer J. E. McGaha.  0.62-m f/5.1
    Newtonian reflector + CCD.
673 Table Mountain Observatory, Wrightwood.  Observer J. Young.  0.6-m
    reflector + CCD.
854 Sabino Canyon Observatory, Tucson.  Observer J. E. McGaha.  0.36-m f/10.0
    Schmidt-Cassegrain + CCD.
A50 Andrushivka Astronomical Observatory.  Observers Y. Ivashchenko,
    D. Kyrylenko.  0.6-m f/2.0 reflector + CCD.
F65 Haleakala-Faulkes Telescope North.  Observers I. Martin, A. D. Taylor,
    A. Fitzsimmons, S. C. Lowry, C. Snodgrass, F. Hormuth, K. Sonnenberg.
    Measurers E. S. Jennings, I. Martin, A. D. Taylor, K. Sonnenberg.  2.0-m
    Ritchey-Chretien + CCD, 2.0-m f/10.0 reflector + CCD.
G96 Mt. Lemmon Survey.  Observer E. J. Christensen.  Measurers E. C. Beshore,
    C. M. Casey, E. J. Christensen, G. J. Garradd, A. D. Grauer, R. E. Hill,
    S. M. Larson, R. H. McNaught.  1.5-m reflector + CCD.

Orbital elements:
2005 MW9
Epoch 2005 June 19.0 TT = JDT 2453540.5                 MPC
M   9.11698              (2000.0)            P               Q
n   0.14648806     Peri.  241.44284     -0.64245568     +0.07405402
a   3.5639743      Node   291.84896     +0.52329880     -0.68472563
e   0.8868607      Incl.   55.26189     -0.55982950     -0.72502883
P   6.73           H   19.3           G   0.15
From 41 observations 2005 June 18-30.

Ephemeris:
2005 MW9                 a,e,i = 3.56, 0.89, 55                  q = 0.4032
Date    TT    R. A. (2000) Decl.     Delta      r     Elong.  Phase     V
2005 06 29    21 37.03   -03 57.9    0.601    1.483   131.3    31.0    20.4
2005 07 09    20 40.59   -00 50.5    0.666    1.626   149.7    18.4    20.4
2005 07 19    19 55.16   +01 00.9    0.779    1.763   158.1    12.4    20.7
2005 07 29    19 22.81   +01 47.5    0.933    1.895   153.1    14.0    21.3
2005 08 08    19 01.68   +01 52.6    1.117    2.022   143.1    17.5    22.0

Kyle E. Smalley              (C) Copyright 2005 MPC           M.P.E.C. 2005-M66

Read MPEC 2005-M65 Read MPEC 2005-N01


Our Web policy. Index to the CBAT/MPC/ICQ pages.


Valid HTML 4.01!